Weather History for PANI - February, 2013

Change the Weather History Date:

Saturday, February 9, 2013

  Actual Average Record
Temperature  
Mean Temperature 22 °F -  
Max Temperature 35 °F 18 °F 42 °F (2004)
Min Temperature 10 °F 5 °F -45 °F (1999)
Degree Days  
Heating Degree Days 42    
Moisture  
Dew Point 23 °F    
Average Humidity 80    
Maximum Humidity 93    
Minimum Humidity 65    
Precipitation  
Precipitation 0.00 in - - ()
Sea Level Pressure  
Sea Level Pressure 29.03 in    
Wind  
Wind Speed 7 mph (ENE)    
Max Wind Speed 18 mph    
Max Gust Speed 26 mph    
Visibility 9 miles    
Events      
Averages and records for this station are not official NWS values.
T = Trace of Precipitation, MM = Missing Value Source: NWS Daily Summary

Daily Weather History Graph

Daily Weather History Graph

Search for Another Location

Airport or City:

Trip Planner

Search our weather history database for the weather conditions in past years. The results will help you decide how hot, cold, wet, or windy it might be!

Date:

Astronomy

Feb. 09, 2013 Rise Set
Actual Time 9:37 AM AKST 6:07 PM AKST
Civil Twilight 8:50 AM AKST 6:55 PM AKST
Nautical Twilight 7:58 AM AKST 7:47 PM AKST
Astronomical Twilight 7:07 AM AKST 8:38 PM AKST
Moon 8:50 AM AKST (2/9) 6:17 PM AKST (2/9)
Length of Visible Light 10h 05m
Length of Day
8h 30m
Waning Crescent, 0% of the Moon is Illuminated
Feb 9
Waning Crescent
Feb 9
New
Feb 17
First Quarter
Feb 25
Full
Mar 4
Last Quarter

Hourly Weather History & Observations

Time (AKST) Temp. Windchill Dew Point Humidity Pressure Visibility Wind Dir Wind Speed Gust Speed Precip Events Conditions
12:16 AM 14.0 °F 5.1 °F 12.2 °F 93% 29.48 in 10.0 mi NE 5.8 mph - N/A   Overcast
12:36 AM 14.0 °F 6.5 °F 10.4 °F 86% 29.47 in 10.0 mi NNE 4.6 mph - N/A   Mostly Cloudy
12:56 AM 14.0 °F 3.9 °F 12.2 °F 93% 29.45 in 10.0 mi ENE 6.9 mph - N/A   Partly Cloudy
1:16 AM 15.8 °F 7.2 °F 12.2 °F 86% 29.44 in 10.0 mi NE 5.8 mph - N/A   Partly Cloudy
1:36 AM 15.8 °F - 12.2 °F 86% 29.42 in 10.0 mi Calm Calm - N/A   Scattered Clouds
1:56 AM 17.6 °F 10.7 °F 15.8 °F 93% 29.41 in 10.0 mi North 4.6 mph - N/A   Overcast
2:16 AM 17.6 °F 12.3 °F 15.8 °F 93% 29.40 in 10.0 mi ENE 3.5 mph - N/A   Overcast
2:36 AM 17.6 °F 10.7 °F 14.0 °F 86% 29.38 in 10.0 mi North 4.6 mph - N/A   Mostly Cloudy
2:56 AM 17.6 °F 9.3 °F 14.0 °F 86% 29.37 in 10.0 mi NNE 5.8 mph - N/A   Scattered Clouds
3:16 AM 19.4 °F - 15.8 °F 86% 29.37 in 10.0 mi Calm Calm - N/A   Mostly Cloudy
3:36 AM 19.4 °F - 17.6 °F 93% 29.36 in 10.0 mi Calm Calm - N/A   Overcast
3:56 AM 19.4 °F 12.8 °F 17.6 °F 93% 29.35 in 10.0 mi NNE 4.6 mph - N/A   Overcast
4:16 AM 21.2 °F 14.9 °F 17.6 °F 86% 29.34 in 10.0 mi NNE 4.6 mph - N/A   Overcast
4:36 AM 21.2 °F 13.6 °F 19.4 °F 93% 29.31 in 10.0 mi NNE 5.8 mph - N/A   Overcast
4:56 AM 21.2 °F 12.6 °F 19.4 °F 93% 29.29 in 8.0 mi NNE 6.9 mph - N/A   Overcast
5:16 AM 23.0 °F 15.8 °F 19.4 °F 86% 29.27 in 10.0 mi NNE 5.8 mph - N/A   Overcast
5:36 AM 24.8 °F 16.1 °F 19.4 °F 80% 29.25 in 10.0 mi North 8.1 mph 17.3 mph N/A   Overcast
6:16 AM 24.8 °F 14.0 °F 19.4 °F 80% 29.22 in 8.0 mi North 11.5 mph 19.6 mph N/A   Overcast
6:36 AM 24.8 °F 14.6 °F 19.4 °F 80% 29.21 in 10.0 mi North 10.4 mph - N/A   Overcast
6:56 AM 24.8 °F 16.1 °F 19.4 °F 80% 29.20 in 10.0 mi North 8.1 mph - N/A   Overcast
7:16 AM 24.8 °F 15.3 °F 19.4 °F 80% 29.18 in 10.0 mi North 9.2 mph - N/A   Overcast
7:36 AM 24.8 °F 15.3 °F 19.4 °F 80% 29.16 in 7.0 mi NNE 9.2 mph - N/A   Overcast
7:56 AM 24.8 °F 15.3 °F 21.2 °F 86% 29.14 in 10.0 mi North 9.2 mph 16.1 mph N/A   Overcast
8:16 AM 26.6 °F 18.2 °F 21.2 °F 80% 29.13 in 10.0 mi NNE 8.1 mph - N/A   Overcast
8:36 AM 26.6 °F 19.1 °F 23.0 °F 86% 29.12 in 10.0 mi NE 6.9 mph - N/A   Overcast
8:56 AM 26.6 °F 18.2 °F 21.2 °F 80% 29.11 in 10.0 mi NNE 8.1 mph - N/A   Overcast
9:16 AM 24.8 °F 16.1 °F 21.2 °F 86% 29.09 in 10.0 mi North 8.1 mph - N/A   Mostly Cloudy
9:36 AM 24.8 °F 15.3 °F 19.4 °F 80% 29.08 in 10.0 mi North 9.2 mph - N/A   Overcast
9:56 AM 24.8 °F 15.3 °F 19.4 °F 80% 29.07 in 10.0 mi North 9.2 mph - N/A   Overcast
10:16 AM 24.8 °F 15.3 °F 21.2 °F 86% 29.07 in 4.0 mi North 9.2 mph 16.1 mph N/A   Overcast
10:36 AM 24.8 °F 15.3 °F 19.4 °F 80% 29.05 in 4.0 mi North 9.2 mph - N/A   Overcast
10:56 AM 23.0 °F 14.7 °F 17.6 °F 80% 29.04 in 5.0 mi North 6.9 mph - N/A   Overcast
11:16 AM 24.8 °F 16.9 °F 19.4 °F 80% 29.03 in 10.0 mi NNE 6.9 mph - N/A   Overcast
11:36 AM 24.8 °F 16.1 °F 17.6 °F 74% 29.02 in 10.0 mi North 8.1 mph - N/A   Overcast
11:56 AM 24.8 °F 16.1 °F 19.4 °F 80% 29.00 in 10.0 mi NE 8.1 mph - N/A   Overcast
12:16 PM 26.6 °F 18.2 °F 21.2 °F 80% 28.98 in 10.0 mi East 8.1 mph - N/A   Mostly Cloudy
12:36 PM 32.0 °F 22.1 °F 26.6 °F 80% 28.97 in 10.0 mi East 13.8 mph 20.7 mph N/A   Clear
12:56 PM 32.0 °F 22.1 °F 24.8 °F 75% 28.95 in 10.0 mi East 13.8 mph 20.7 mph N/A   Scattered Clouds
1:16 PM 32.0 °F 20.8 °F 24.8 °F 75% 28.93 in 10.0 mi East 17.3 mph 26.5 mph N/A   Partly Cloudy
1:36 PM 32.0 °F 20.8 °F 24.8 °F 75% 28.92 in 10.0 mi East 17.3 mph 20.7 mph N/A   Mostly Cloudy
1:56 PM 33.8 °F 22.8 °F 24.8 °F 70% 28.90 in 10.0 mi East 18.4 mph 24.2 mph N/A   Mostly Cloudy
2:16 PM 33.8 °F 25.3 °F 24.8 °F 70% 28.90 in 10.0 mi East 11.5 mph - N/A   Mostly Cloudy
2:36 PM 33.8 °F 25.3 °F 26.6 °F 75% 28.89 in 10.0 mi East 11.5 mph - N/A   Overcast
2:56 PM 33.8 °F 25.8 °F 26.6 °F 75% 28.88 in 10.0 mi East 10.4 mph - N/A   Overcast
3:16 PM 33.8 °F 25.3 °F 24.8 °F 70% 28.87 in 10.0 mi East 11.5 mph 18.4 mph N/A   Overcast
3:36 PM 33.8 °F 25.3 °F 26.6 °F 75% 28.86 in 10.0 mi East 11.5 mph 18.4 mph N/A   Overcast
3:56 PM 33.8 °F 26.4 °F 26.6 °F 75% 28.85 in 10.0 mi East 9.2 mph 17.3 mph N/A   Overcast
4:16 PM 33.8 °F 27.0 °F 26.6 °F 75% 28.84 in 10.0 mi East 8.1 mph - N/A   Mostly Cloudy
4:36 PM 35.6 °F 29.9 °F 28.4 °F 75% 28.83 in 10.0 mi East 6.9 mph - N/A   Mostly Cloudy
4:56 PM 35.6 °F 29.9 °F 28.4 °F 75% 28.82 in 10.0 mi East 6.9 mph - N/A   Overcast
5:16 PM 35.6 °F 29.2 °F 28.4 °F 75% 28.82 in 10.0 mi East 8.1 mph - N/A   Overcast
5:36 PM 35.6 °F 28.6 °F 26.6 °F 70% 28.81 in 10.0 mi ESE 9.2 mph - N/A   Overcast
5:56 PM 35.6 °F 29.9 °F 26.6 °F 70% 28.80 in 10.0 mi ESE 6.9 mph - N/A   Overcast
6:16 PM 35.6 °F 30.7 °F 26.6 °F 70% 28.80 in 10.0 mi ESE 5.8 mph - N/A   Overcast
6:36 PM 35.6 °F 29.9 °F 26.6 °F 70% 28.80 in 10.0 mi ESE 6.9 mph - N/A   Overcast
6:56 PM 35.6 °F 29.9 °F 28.4 °F 75% 28.79 in 10.0 mi East 6.9 mph - N/A   Overcast
7:16 PM 35.6 °F 29.9 °F 28.4 °F 75% 28.78 in 10.0 mi East 6.9 mph - N/A   Overcast
7:36 PM 35.6 °F 29.2 °F 30.2 °F 81% 28.78 in 10.0 mi East 8.1 mph - N/A   Overcast
7:56 PM 35.6 °F 28.0 °F 30.2 °F 81% 28.78 in 10.0 mi East 10.4 mph - N/A   Overcast
8:16 PM 35.6 °F 28.0 °F 30.2 °F 81% 28.78 in 10.0 mi East 10.4 mph - N/A   Overcast
8:36 PM 35.6 °F 28.6 °F 28.4 °F 75% 28.77 in 10.0 mi East 9.2 mph - N/A   Overcast
8:56 PM 35.6 °F 29.9 °F 28.4 °F 75% 28.77 in 10.0 mi ESE 6.9 mph - N/A   Overcast
9:16 PM 35.6 °F 29.9 °F 30.2 °F 81% 28.77 in 10.0 mi ESE 6.9 mph - N/A   Overcast
9:36 PM 35.6 °F 28.6 °F 30.2 °F 81% 28.77 in 10.0 mi ESE 9.2 mph - N/A   Overcast
9:56 PM 35.6 °F 28.6 °F 30.2 °F 81% 28.76 in 10.0 mi ESE 9.2 mph - N/A   Overcast
10:16 PM 33.8 °F 25.8 °F 30.2 °F 87% 28.76 in 10.0 mi ESE 10.4 mph - N/A   Overcast
10:36 PM 32.0 °F 27.5 °F 26.6 °F 80% 28.76 in 10.0 mi ENE 4.6 mph - N/A   Overcast
10:56 PM 30.2 °F 25.4 °F 26.6 °F 86% 28.75 in 5.0 mi ENE 4.6 mph - N/A   Overcast
11:16 PM 30.2 °F 26.7 °F 26.6 °F 86% 28.75 in 5.0 mi NE 3.5 mph - N/A   Overcast
11:36 PM 30.2 °F - 26.6 °F 86% 28.75 in 4.0 mi Calm Calm - N/A   Overcast
11:56 PM 30.2 °F - 26.6 °F 86% 28.75 in 5.0 mi Calm Calm - N/A   Overcast